Preview of NWS' New Version of Forecast
This preview is not operational and should not be used for support decisions.
Latest weather observations around

Spokane, Spokane International Airport (KGEG)

Using English Units (Switch to International System of Units)
Date/ Time (PDT) Wind (mph) Vis. (mi) Weather Sky Cond. Temp (°F) Rel. Humidity Wind Chill (°F) Heat Index (°F) Pressure Precip. (in)
Air Dwpt 6 hour Altimeter (inHg) Sea level (inHg) 1 hr 3 hr 6 hr
Max Min
Sep 23 02:53 SSW 14 10 Cloudy OVC006 54 50     86%     29.96 29.94      
Sep 23 01:53 SSW 15 10 Mostly Cloudy BKN006 BKN055 BKN100 54 50     86%     29.95 29.92      
Sep 23 01:46 SSW 15 10 Mostly Cloudy SCT007 BKN055 BKN100 54 50     86%     29.95        
Sep 23 00:53 SSW 16 10 Mostly Cloudy FEW070 FEW120 BKN180 55 50     83%     29.94 29.91      
Sep 22 23:53 SSW 14 10 Mostly Clear FEW070 FEW120 56 49     77%     29.93 29.9      
Sep 22 22:53 SSW 15 10 Mostly Clear FEW070 58 50     75%     29.92 29.89     0
Sep 22 21:53 SSW 13 10 Mostly Cloudy BKN080 61 45     56%     29.91 29.88      
Sep 22 20:53 SSW 9 10 Mostly Cloudy SCT140 BKN190 62 45     53%     29.89 29.87      
Sep 22 19:53 SW 10 10 Cloudy FEW110 BKN140 OVC190 64 45     50%     29.89 29.88   0  
Sep 22 18:53 WSW 14 10 Cloudy FEW075 FEW110 BKN140 OVC200 65 46     50%     29.86 29.85      
Sep 22 17:53   10 Clear   68 47     47%     29.85 29.84 0    
Sep 22 16:53 SSW 10 10 Light Rain BKN075 BKN090 BKN200 70 45     41%     29.84 29.82 0   0
Sep 22 15:53 SSW 13 10 Mostly Cloudy FEW065 BKN080 BKN200 72 44     37%   71 29.84 29.82 0    
Sep 22 14:53 SW 13 10 Mostly Cloudy FEW065 BKN080 BKN200 71 43     36%   70 29.85 29.83      
Sep 22 13:53 SW 10 10 Mostly Cloudy FEW065 BKN095 BKN200 72 43     35%   71 29.86 29.83      
Sep 22 12:53 SSW 10 10 Mostly Cloudy FEW060 SCT100 BKN140 BKN200 71 44     38%   70 29.87 29.84      
Sep 22 11:53 SE 7 10 Mostly Cloudy FEW060 SCT100 BKN140 BKN200 68 46     45%     29.89 29.87      
Sep 22 10:53 SE 7 10 Mostly Cloudy FEW120 BKN200 65 46     50%     29.91 29.88      
Sep 22 09:53 SE 9 10 Mostly Cloudy FEW100 BKN200 62 45     53%     29.92 29.89      
Sep 22 08:53 Calm 10 Partly Cloudy FEW003 FEW090 SCT200 56 46     69%     29.93 29.91      
Sep 22 07:53 ENE 3 10 Mostly Clear FEW090 FEW200 50 45     83%     29.93 29.91      
Sep 22 06:53 ENE 3 10 Mostly Clear FEW090 FEW120 FEW180 48 44     86% 47   29.93 29.92      
Sep 22 05:53 E 3 10 Mostly Clear FEW100 48 44     86% 47   29.93 29.92      
Sep 22 04:53 ENE 3 10 Clear CLR 50 44     80%     29.94 29.92      
Sep 22 03:53 ESE 3 10 Clear CLR 52 44     74%     29.94 29.92      
Sep 22 02:53 SSE 9 10 Clear CLR 53 44     71%     29.96 29.94      
Sep 22 01:53 SSE 9 10 Clear CLR 54 44     69%     29.97 29.95      
Sep 22 00:53 SSE 9 10 Clear CLR 54 42     64%     29.98 29.96      
Sep 21 23:53 SSE 8 10 Clear CLR 55 41     59%     29.99 29.97      
Sep 21 22:53 S 6 10 Clear CLR 57 42     57%     29.99 29.97      
Sep 21 21:53 S 7 10 Clear CLR 59 42     53%     29.99 29.98      
Sep 21 20:53 S 6 10 Clear CLR 61 42     50%     30 29.99      
Sep 21 19:53 S 7 10 Clear CLR 62 42     48%     30 29.99      
Sep 21 18:53 S 6 10 Mostly Clear FEW060 FEW250 65 43     45%     29.99 29.99      
Sep 21 17:53 SSW 8 10 Partly Cloudy FEW055 SCT250 68 43     40%     30 29.99      
Sep 21 16:53 SW 7 10 Mostly Cloudy SCT055 BKN250 68 43     40%     30.02 30.01      
Sep 21 15:53 SW 8 10 Mostly Cloudy SCT055 BKN250 68 43     40%     30.03 30.01      
Sep 21 14:53 SW 10 10 Mostly Cloudy FEW050 BKN250 67 44     44%     30.04 30.03      
Sep 21 13:53 SW 10 10 Mostly Cloudy FEW040 BKN250 66 44     45%     30.07 30.05      
Sep 21 12:53 SW 7 10 Mostly Cloudy FEW030 FEW120 BKN250 64 45     50%     30.08 30.07      
Sep 21 11:53 SSW 9 10 Mostly Cloudy FEW025 FEW120 BKN250 61 46     58%     30.09 30.08      
Sep 21 10:53 SW 3 10 Mostly Cloudy FEW020 FEW120 BKN250 58 47     67%     30.11 30.1      
Sep 21 09:53 SW 7 10 Mostly Cloudy FEW010 FEW120 BKN250 56 47     72%     30.12 30.11      
Sep 21 08:53 SSE 6 10 Mostly Cloudy FEW006 FEW100 BKN250 50 45     83%     30.12 30.11      
Sep 21 07:53 SSE 6 10 Mostly Cloudy FEW009 FEW090 BKN250 46 43     89% 43   30.1 30.11      
Sep 21 06:53 SSE 7 10 Mostly Cloudy FEW009 FEW025 FEW070 BKN250 45 42     90% 41   30.09 30.1      
Sep 21 06:30 SSE 6 10 Mostly Cloudy FEW009 FEW080 FEW160 BKN250 44 42     93% 41   30.09        
Sep 21 05:53 SSE 7 10 Partly Cloudy FEW070 FEW160 SCT250 44 42     93% 40   30.08 30.08      
Sep 21 04:53 S 6 10 Mostly Cloudy FEW070 BKN250 45 42     90% 42   30.07 30.07      
Sep 21 03:53 SSE 7 10 Mostly Cloudy FEW070 BKN250 46 43     89% 42   30.06 30.06      
Sep 21 02:53 SSE 7 10 Mostly Clear FEW200 48 44     86% 45   30.07 30.06      
Sep 21 01:53 SSE 5 10 Mostly Clear FEW060 FEW200 50 45     83%     30.06 30.05      
Sep 21 00:53 Calm 10 Mostly Clear FEW060 FEW200 53 45     74%     30.05 30.04      
Sep 20 23:53 SW 11 10 Mostly Clear FEW060 FEW200 53 46     77%     30.03 30.03      
Sep 20 22:53 SW 15 10 Mostly Clear FEW065 55 47     74%     30.03 30.02     0
Sep 20 21:53   10 Mostly Cloudy BKN085 56 48     75%     30.03 30.03      
Sep 20 20:53 SSW 13 10 Mostly Cloudy BKN085 57 48     72%     30.02 30.02      
Sep 20 19:53 S 10 10 Partly Cloudy FEW065 SCT090 57 49     74%     30.01 30.01   0  
Sep 20 18:53 S 8 10 Mostly Cloudy FEW065 FEW090 SCT200 BKN240 57 49     74%     30 30      
Sep 20 17:53 SSW 8 10 Mostly Cloudy FEW050 FEW070 SCT100 BKN220 60 48     64%     30 29.99 0    
Sep 20 16:53 SW 11 10 Clear   63 47     56%     30 29.99 0   0
Sep 20 15:53 WSW 6 10 Mostly Cloudy FEW035 SCT065 BKN090 BKN220 66 45     47%     29.99 29.98      
Sep 20 14:53 Calm 10 Clear   64 45     50%     29.99 29.98      
Sep 20 13:53 WSW 6 10 Mostly Cloudy SCT030 BKN060 62 46     56%     29.99 29.98      
Sep 20 13:44 W 7 10 Mostly Cloudy SCT030 BKN060 62 46     56%     29.99        
Sep 20 13:13 W 10 10 Mostly Cloudy BKN028 BKN060 BKN250 62 48     60%     29.99        
Sep 20 12:53 3 10 Mostly Cloudy SCT025 BKN060 BKN250 61 47     60%     29.99 29.98      
Sep 20 11:53 WSW 5 10 Mostly Cloudy SCT016 BKN060 57 48     72%     30 29.99      
Sep 20 11:35 3 10 Mostly Cloudy SCT014 BKN055 56 48     75%     30        
Sep 20 10:53 Calm 10 Mostly Cloudy BKN010 BKN060 54 48     80%     30 29.99 0   0
Sep 20 10:28 3 10 Cloudy BKN010 OVC065 53 48     83%     30   0    
Sep 20 09:53 S 6 10 Light Rain BKN009 OVC060 51 47     86%     30 30 0    
Sep 20 09:15 S 3 10 Cloudy BKN008 BKN050 OVC075 51 47     86%     30        
Sep 20 08:53 SSE 5 10 Mostly Cloudy SCT008 SCT050 BKN080 51 47     86%     30 29.99 0    
Sep 20 07:53 SW 7 10 Cloudy SCT015 BKN050 OVC070 50 45     83%     30 29.99 0 0  
Sep 20 06:53 SSE 5 10 Light Rain FEW050 BKN070 OVC085 49 43     80% 47   29.98 29.97 0    
Sep 20 05:53 SSE 8 10 Mostly Cloudy SCT070 BKN095 49 42     77% 45   29.96 29.94      
Sep 20 04:53 S 7 10 Cloudy BKN085 OVC120 48 42     80% 45   29.95 29.94     0
Sep 20 03:53 SSE 7 10 Mostly Cloudy BKN110 49 41     74% 46   29.94 29.93      
Sep 20 02:53 SSE 6 10 Partly Cloudy SCT120 49 42     77% 46   29.94 29.94      
Sep 20 01:53 SSE 6 10 Mostly Cloudy SCT075 SCT120 BKN200 50 42     74%     29.95 29.94   0  
Sep 20 00:53 SSW 6 10 Mostly Cloudy SCT080 SCT120 BKN200 53 42     66%     29.95 29.95      
Notice The following observation data may not be complete
May 15 01:53 Calm 10 Clear CLR   41      %     29.92 29.88      
May 14 16:53 Calm 10 Mostly Clear FEW060 FEW250 82 32     16%   80 29.96 29.91      
May 14 02:53 Calm 10 Clear   58 45     62%     30.01 29.97      
May 13 21:53 NW 3 10 Mostly Clear FEW100 65 43     45%     29.98 29.94      
May 13 15:53 NNE 9 10 Mostly Clear FEW060 80 36     20%   79 29.95 29.91      
May 12 05:53 Calm 10 Patchy Fog FEW200 45 43     93%     30.09 30.09      
May 12 01:53 Calm 10 Clear CLR 48 44     86%     30.09 30.09      
May 11 05:53 Calm 10 Patchy Fog FEW006 SCT130 BKN200 43 42     97%     30.02 30.03      
Jun 10 19:53 SSW 10 10 Clear   60 37     42%     29.81 29.8      
Jun 10 16:49   10 Mostly Cloudy FEW030 SCT050 BKN065 BKN130 63 36     36%     29.77        
Jun 08 07:53 SSW 10 10 Cloudy SCT070 BKN090 OVC150 66 50     56%     29.67 29.6      
Jun 07 10:53 ENE 10 10 Partly Cloudy FEW012 SCT240 77 50     39%   76 29.84 29.78      
Notice The following observation data may not be complete
Jun 07 05:53 NE 6 10 Partly Cloudy FEW170 SCT200   47      %     29.9 29.85